2015-05-18, 07:00:04,VALID,917.693,VALID,0,VALID,98.2658,VALID,94.3333,VALID,20.2293,VALID,138,VALID,1.22539,
2015-05-18, 07:01:04,VALID,917.721,VALID,0,VALID,98.1743,VALID,97.1268,VALID,20.3074,VALID,133,VALID,0.807422,
2015-05-18, 07:02:04,VALID,917.733,VALID,0,VALID,98.0295,VALID,100.78,VALID,20.3269,VALID,142,VALID,1.36016,
2015-05-18, 07:03:04,VALID,917.762,VALID,0,VALID,97.816,VALID,103.358,VALID,20.3854,VALID,143,VALID,0.705859,
2015-05-18, 07:04:04,VALID,917.801,VALID,0,VALID,97.6331,VALID,106.044,VALID,20.4439,VALID,154,VALID,1.0125,
2015-05-18, 07:05:04,VALID,917.775,VALID,0,VALID,97.4196,VALID,108.73,VALID,20.5024,VALID,152,VALID,0.655859,
2015-05-18, 07:06:04,VALID,917.79,VALID,0,VALID,97.1604,VALID,111.309,VALID,20.5009,VALID,159,VALID,0.912891,
2015-05-18, 07:07:04,VALID,917.797,VALID,0,VALID,96.825,VALID,113.78,VALID,20.5594,VALID,146,VALID,1.08906,
2015-05-18, 07:08:04,VALID,917.82,VALID,0,VALID,96.4438,VALID,115.929,VALID,20.6194,VALID,158,VALID,0.822266,
2015-05-18, 07:09:04,VALID,917.827,VALID,0,VALID,96.1846,VALID,118.293,VALID,20.639,VALID,149,VALID,0.701172,
2015-05-18, 07:10:04,VALID,917.858,VALID,0,VALID,95.9636,VALID,120.871,VALID,20.6975,VALID,144,VALID,0.883984,
2015-05-18, 07:11:04,VALID,917.851,VALID,0,VALID,95.7654,VALID,123.557,VALID,20.7154,VALID,137,VALID,0.927734,
2015-05-18, 07:12:04,VALID,917.866,VALID,0,VALID,95.5519,VALID,125.706,VALID,20.7755,VALID,153,VALID,0.925,
2015-05-18, 07:13:04,VALID,917.88,VALID,0,VALID,95.3537,VALID,128.5,VALID,20.834,VALID,162,VALID,0.732031,
2015-05-18, 07:14:04,VALID,917.859,VALID,0,VALID,95.3079,VALID,131.186,VALID,20.8925,VALID,162,VALID,0.780859,
2015-05-18, 07:15:04,VALID,917.873,VALID,0,VALID,94.9649,VALID,133.872,VALID,20.9706,VALID,161,VALID,0.684375,
2015-05-18, 07:16:04,VALID,917.869,VALID,0,VALID,94.7057,VALID,136.773,VALID,21.0291,VALID,145,VALID,0.766016,
2015-05-18, 07:17:04,VALID,917.856,VALID,0,VALID,94.2712,VALID,139.673,VALID,21.0892,VALID,130,VALID,0.842578,
2015-05-18, 07:18:04,VALID,917.849,VALID,0,VALID,94.0806,VALID,142.574,VALID,21.1657,VALID,141,VALID,0.773828,
2015-05-18, 07:19:04,VALID,917.821,VALID,0,VALID,93.3716,VALID,145.368,VALID,21.2437,VALID,125,VALID,1.50742,
2015-05-18, 07:20:04,VALID,917.844,VALID,0,VALID,92.716,VALID,147.517,VALID,21.2827,VALID,136,VALID,0.969531,
2015-05-18, 07:21:04,VALID,917.847,VALID,0,VALID,92.007,VALID,149.988,VALID,21.3022,VALID,145,VALID,1.02891,
2015-05-18, 07:22:04,VALID,917.82,VALID,0,VALID,92.0299,VALID,152.352,VALID,21.3412,VALID,134,VALID,0.992578,
2015-05-18, 07:23:04,VALID,917.812,VALID,0,VALID,92.0909,VALID,155.145,VALID,21.4193,VALID,140,VALID,1.16289,
2015-05-18, 07:24:04,VALID,917.826,VALID,0,VALID,91.7783,VALID,157.724,VALID,21.4778,VALID,138,VALID,0.830078,
2015-05-18, 07:25:04,VALID,917.835,VALID,0,VALID,90.6577,VALID,160.839,VALID,21.5542,VALID,131,VALID,1.21563,
2015-05-18, 07:26:04,VALID,917.831,VALID,0,VALID,90.1088,VALID,163.203,VALID,21.6518,VALID,140,VALID,1.10469,
2015-05-18, 07:27:04,VALID,917.851,VALID,0,VALID,89.0949,VALID,166.211,VALID,21.6713,VALID,134,VALID,1.04023,
2015-05-18, 07:28:04,VALID,917.87,VALID,0,VALID,89.415,VALID,169.22,VALID,21.7493,VALID,136,VALID,0.608594,
2015-05-18, 07:29:04,VALID,917.881,VALID,0,VALID,88.6908,VALID,171.584,VALID,21.7883,VALID,160,VALID,0.850391,
2015-05-18, 07:30:04,VALID,917.899,VALID,0,VALID,88.5002,VALID,174.807,VALID,21.7688,VALID,158,VALID,1.0918,
2015-05-18, 07:31:04,VALID,917.924,VALID,0,VALID,89.1863,VALID,177.493,VALID,21.7688,VALID,146,VALID,0.869922,
2015-05-18, 07:32:04,VALID,917.938,VALID,0,VALID,89.011,VALID,180.823,VALID,21.7688,VALID,174,VALID,1.34219,
2015-05-18, 07:33:04,VALID,917.95,VALID,0,VALID,89.3007,VALID,184.047,VALID,21.7883,VALID,159,VALID,0.558594,
2015-05-18, 07:34:04,VALID,917.954,VALID,0,VALID,89.2168,VALID,187.7,VALID,21.7477,VALID,148,VALID,0.902344,
2015-05-18, 07:35:04,VALID,917.96,VALID,0,VALID,89.5065,VALID,191.138,VALID,21.8274,VALID,153,VALID,0.372656,
2015-05-18, 07:36:04,VALID,917.981,VALID,0,VALID,89.133,VALID,194.254,VALID,21.8859,VALID,147,VALID,1.10664,
2015-05-18, 07:37:04,VALID,917.983,VALID,0,VALID,88.5917,VALID,198.014,VALID,21.8647,VALID,147,VALID,0.911328,
2015-05-18, 07:38:04,VALID,917.984,VALID,0,VALID,88.0505,VALID,201.237,VALID,21.8452,VALID,129,VALID,1.43359,
2015-05-18, 07:39:04,VALID,917.964,VALID,0,VALID,88.6832,VALID,204.138,VALID,21.8274,VALID,112,VALID,0.663672,
2015-05-18, 07:40:04,VALID,917.951,VALID,0,VALID,89.1787,VALID,207.469,VALID,21.8079,VALID,117,VALID,0.833984,
2015-05-18, 07:41:04,VALID,917.961,VALID,0,VALID,88.6222,VALID,210.477,VALID,21.7883,VALID,128,VALID,1.15234,
2015-05-18, 07:42:04,VALID,917.96,VALID,0,VALID,89.72,VALID,214.238,VALID,21.8485,VALID,103,VALID,1.02891,
2015-05-18, 07:43:04,VALID,917.97,VALID,0,VALID,89.7505,VALID,217.246,VALID,21.9249,VALID,97,VALID,0.105469,
2015-05-18, 07:44:04,VALID,917.962,VALID,0,VALID,88.7823,VALID,221.006,VALID,22.042,VALID,107,VALID,0.520312,
2015-05-18, 07:45:04,VALID,917.971,VALID,0,VALID,87.8827,VALID,224.659,VALID,22.2159,VALID,107,VALID,0.500391,
2015-05-18, 07:46:04,VALID,917.974,VALID,0,VALID,87.1433,VALID,227.99,VALID,22.3135,VALID,92,VALID,0.800781,
2015-05-18, 07:47:04,VALID,917.971,VALID,0,VALID,86.5334,VALID,230.784,VALID,22.294,VALID,136,VALID,1.11016,
2015-05-18, 07:48:04,VALID,917.973,VALID,0,VALID,87.3034,VALID,234.651,VALID,22.3347,VALID,137,VALID,0.532422,
2015-05-18, 07:49:04,VALID,918.023,VALID,0,VALID,86.6096,VALID,237.767,VALID,22.3933,VALID,137,VALID,0,
2015-05-18, 07:50:04,VALID,918.032,VALID,0,VALID,86.6249,VALID,240.776,VALID,22.4891,VALID,127,VALID,0,
2015-05-18, 07:51:04,VALID,918.055,VALID,0,VALID,86.8307,VALID,243.569,VALID,22.5867,VALID,138,VALID,0,
2015-05-18, 07:52:04,VALID,918.045,VALID,0,VALID,85.1688,VALID,247.33,VALID,22.6843,VALID,175,VALID,0,
2015-05-18, 07:53:04,VALID,918.059,VALID,0,VALID,85.1688,VALID,250.66,VALID,22.6647,VALID,165,VALID,0,
2015-05-18, 07:54:04,VALID,918.063,VALID,0,VALID,86.0074,VALID,253.991,VALID,22.7641,VALID,157,VALID,0,
2015-05-18, 07:55:04,VALID,918.066,VALID,0,VALID,84.5361,VALID,257.429,VALID,22.8812,VALID,147,VALID,0.894531,
2015-05-18, 07:56:04,VALID,918.055,VALID,0,VALID,84.2921,VALID,260.975,VALID,22.9202,VALID,170,VALID,0.961328,
2015-05-18, 07:57:04,VALID,918.064,VALID,0,VALID,83.1334,VALID,264.735,VALID,22.9575,VALID,174,VALID,1.00195,
2015-05-18, 07:58:04,VALID,918.069,VALID,0,VALID,83.6441,VALID,267.636,VALID,22.977,VALID,132,VALID,0.510156,
2015-05-18, 07:59:04,VALID,918.065,VALID,0,VALID,83.0724,VALID,271.074,VALID,22.9965,VALID,162,VALID,0.855469,
2015-05-18, 08:00:04,VALID,918.089,VALID,0,VALID,82.371,VALID,275.157,VALID,23.0356,VALID,176,VALID,1.41289,
2015-05-18, 08:01:04,VALID,918.107,VALID,0,VALID,82.6683,VALID,278.38,VALID,23.0551,VALID,161,VALID,0.689453,
2015-05-18, 08:02:04,VALID,918.108,VALID,0,VALID,83.0571,VALID,281.388,VALID,23.0746,VALID,164,VALID,0.927734,
2015-05-18, 08:03:04,VALID,918.13,VALID,0,VALID,83.3087,VALID,284.719,VALID,23.1331,VALID,154,VALID,0.824609,
2015-05-18, 08:04:04,VALID,918.14,VALID,0,VALID,83.141,VALID,288.694,VALID,23.1331,VALID,140,VALID,0.532031,
2015-05-18, 08:05:04,VALID,918.138,VALID,0,VALID,82.6683,VALID,291.595,VALID,23.1119,VALID,155,VALID,0,
2015-05-18, 08:06:04,VALID,918.196,VALID,0,VALID,82.0813,VALID,294.926,VALID,23.1917,VALID,155,VALID,0,
2015-05-18, 08:07:04,VALID,918.228,VALID,0,VALID,81.7154,VALID,298.579,VALID,23.2698,VALID,155,VALID,0,
2015-05-18, 08:08:04,VALID,918.249,VALID,0,VALID,81.1513,VALID,301.158,VALID,23.3283,VALID,172,VALID,0,
2015-05-18, 08:09:04,VALID,918.258,VALID,0,VALID,81.4943,VALID,305.133,VALID,23.3265,VALID,172,VALID,0,
2015-05-18, 08:10:04,VALID,918.267,VALID,0,VALID,81.7611,VALID,308.678,VALID,23.4241,VALID,174,VALID,0,
2015-05-18, 08:11:04,VALID,918.284,VALID,0,VALID,81.3495,VALID,311.15,VALID,23.4827,VALID,152,VALID,0,
2015-05-18, 08:12:04,VALID,918.318,VALID,0,VALID,82.1194,VALID,314.803,VALID,23.5626,VALID,145,VALID,0,
2015-05-18, 08:13:04,VALID,918.276,VALID,0,VALID,81.4638,VALID,317.274,VALID,23.4632,VALID,167,VALID,0,
2015-05-18, 08:14:04,VALID,918.295,VALID,0,VALID,81.1818,VALID,320.927,VALID,23.5022,VALID,169,VALID,0,
2015-05-18, 08:15:04,VALID,918.311,VALID,0,VALID,81.4105,VALID,323.935,VALID,23.5998,VALID,169,VALID,0,
2015-05-18, 08:16:04,VALID,918.332,VALID,0,VALID,81.258,VALID,327.266,VALID,23.6974,VALID,180,VALID,0,
2015-05-18, 08:17:04,VALID,918.389,VALID,0,VALID,80.0001,VALID,330.167,VALID,23.9316,VALID,180,VALID,0,
2015-05-18, 08:18:04,VALID,918.392,VALID,0,VALID,79.192,VALID,333.175,VALID,24.0311,VALID,180,VALID,0,
2015-05-18, 08:19:04,VALID,918.368,VALID,0,VALID,79.0396,VALID,337.258,VALID,24.0506,VALID,180,VALID,0,
2015-05-18, 08:20:04,VALID,918.42,VALID,0,VALID,79.3903,VALID,340.696,VALID,24.0701,VALID,176,VALID,0,
2015-05-18, 08:21:04,VALID,918.436,VALID,0,VALID,78.6584,VALID,344.671,VALID,24.1287,VALID,164,VALID,0,
2015-05-18, 08:22:04,VALID,918.452,VALID,0,VALID,77.5606,VALID,347.68,VALID,24.1854,VALID,174,VALID,0,
2015-05-18, 08:23:04,VALID,918.458,VALID,0,VALID,78.3306,VALID,351.118,VALID,24.2458,VALID,171,VALID,0,
2015-05-18, 08:24:04,VALID,918.451,VALID,0,VALID,78.1019,VALID,354.448,VALID,24.3611,VALID,134,VALID,0,
2015-05-18, 08:25:04,VALID,918.467,VALID,0,VALID,78.0714,VALID,358.531,VALID,24.4392,VALID,105,VALID,0,
2015-05-18, 08:26:04,VALID,918.495,VALID,0,VALID,77.0041,VALID,361.217,VALID,24.4997,VALID,106,VALID,0,
2015-05-18, 08:27:04,VALID,918.487,VALID,0,VALID,76.3485,VALID,364.548,VALID,24.5173,VALID,109,VALID,0,
2015-05-18, 08:28:04,VALID,918.469,VALID,0,VALID,76.1427,VALID,368.308,VALID,24.693,VALID,109,VALID,0,
2015-05-18, 08:29:04,VALID,918.5,VALID,0,VALID,75.5328,VALID,371.531,VALID,24.7711,VALID,135,VALID,0,
2015-05-18, 08:30:04,VALID,918.482,VALID,0,VALID,74.6866,VALID,375.937,VALID,24.8707,VALID,135,VALID,0,
2015-05-18, 08:31:04,VALID,918.495,VALID,0,VALID,74.0462,VALID,380.557,VALID,24.9859,VALID,135,VALID,0,
2015-05-18, 08:32:04,VALID,918.509,VALID,0,VALID,74.2597,VALID,383.135,VALID,25.025,VALID,135,VALID,0,
2015-05-18, 08:33:04,VALID,918.519,VALID,0,VALID,74.0996,VALID,386.358,VALID,25.0445,VALID,135,VALID,0,
2015-05-18, 08:34:04,VALID,918.526,VALID,0,VALID,73.8785,VALID,390.226,VALID,25.1617,VALID,135,VALID,0,
2015-05-18, 08:35:04,VALID,918.522,VALID,0,VALID,73.3906,VALID,394.416,VALID,25.2788,VALID,135,VALID,0,
2015-05-18, 08:36:04,VALID,918.529,VALID,0,VALID,72.8112,VALID,397.317,VALID,25.396,VALID,135,VALID,0,
2015-05-18, 08:37:04,VALID,918.566,VALID,0,VALID,73.1009,VALID,400.111,VALID,25.357,VALID,181,VALID,1.05,
2015-05-18, 08:38:04,VALID,918.55,VALID,0,VALID,72.9942,VALID,401.722,VALID,25.2965,VALID,193,VALID,1.13828,
2015-05-18, 08:39:04,VALID,918.552,VALID,0,VALID,72.3157,VALID,404.409,VALID,25.2965,VALID,183,VALID,1.30898,
2015-05-18, 08:40:04,VALID,918.557,VALID,0,VALID,73.3678,VALID,407.202,VALID,25.2183,VALID,189,VALID,1.08906,
2015-05-18, 08:41:04,VALID,918.531,VALID,0,VALID,73.787,VALID,410.318,VALID,25.2183,VALID,196,VALID,1.37812,
2015-05-18, 08:42:04,VALID,918.538,VALID,0,VALID,74.2216,VALID,410.64,VALID,25.1422,VALID,183,VALID,1.31484,
2015-05-18, 08:43:04,VALID,918.55,VALID,0,VALID,75.9978,VALID,415.797,VALID,24.8492,VALID,170,VALID,1.03203,
2015-05-18, 08:44:04,VALID,918.56,VALID,0,VALID,76.4476,VALID,418.913,VALID,24.8278,VALID,177,VALID,0.379297,
2015-05-18, 08:45:04,VALID,918.526,VALID,0,VALID,77.5759,VALID,421.707,VALID,24.8669,VALID,128,VALID,0.518359,
2015-05-18, 08:46:04,VALID,918.563,VALID,0,VALID,75.7768,VALID,423.533,VALID,24.8864,VALID,173,VALID,0,
2015-05-18, 08:47:04,VALID,918.562,VALID,0,VALID,75.9902,VALID,428.368,VALID,24.8669,VALID,173,VALID,0,
2015-05-18, 08:48:04,VALID,918.566,VALID,0,VALID,75.731,VALID,432.558,VALID,24.904,VALID,178,VALID,0,
2015-05-18, 08:49:04,VALID,918.576,VALID,0,VALID,75.2355,VALID,435.889,VALID,25.0017,VALID,138,VALID,0,
2015-05-18, 08:50:04,VALID,918.603,VALID,0,VALID,77.1032,VALID,437.5,VALID,24.9626,VALID,143,VALID,0,
2015-05-18, 08:51:04,VALID,918.612,VALID,0,VALID,76.4781,VALID,439.434,VALID,24.865,VALID,175,VALID,0,
2015-05-18, 08:52:04,VALID,918.652,VALID,0,VALID,76.0664,VALID,445.021,VALID,24.7674,VALID,190,VALID,0,
2015-05-18, 08:53:04,VALID,918.675,VALID,0,VALID,77.2404,VALID,447.17,VALID,24.7869,VALID,148,VALID,0,
2015-05-18, 08:54:04,VALID,918.7,VALID,0,VALID,76.8821,VALID,451.683,VALID,24.8278,VALID,191,VALID,0,
2015-05-18, 08:55:04,VALID,918.718,VALID,0,VALID,74.7628,VALID,435.244,VALID,24.945,VALID,191,VALID,0,
2015-05-18, 08:56:04,VALID,918.735,VALID,0,VALID,75.8454,VALID,451.36,VALID,25.025,VALID,172,VALID,0,
2015-05-18, 08:57:04,VALID,918.718,VALID,0,VALID,76.6306,VALID,450.501,VALID,25.1812,VALID,163,VALID,0,
2015-05-18, 08:58:04,VALID,918.75,VALID,0,VALID,73.6193,VALID,460.6,VALID,25.2574,VALID,142,VALID,0,
2015-05-18, 08:59:04,VALID,918.749,VALID,0,VALID,72.7884,VALID,464.576,VALID,25.5132,VALID,175,VALID,0,
2015-05-18, 09:00:04,VALID,918.778,VALID,0,VALID,71.9727,VALID,464.468,VALID,25.5718,VALID,139,VALID,0,
2015-05-18, 09:01:04,VALID,918.763,VALID,0,VALID,72.9103,VALID,465.435,VALID,25.7456,VALID,139,VALID,0,
2015-05-18, 09:02:04,VALID,918.746,VALID,0,VALID,72.3767,VALID,470.377,VALID,25.7456,VALID,111,VALID,1.36133,
2015-05-18, 09:03:04,VALID,918.772,VALID,0,VALID,73.5812,VALID,474.89,VALID,25.4937,VALID,115,VALID,0,
2015-05-18, 09:04:04,VALID,918.762,VALID,0,VALID,73.0323,VALID,474.46,VALID,25.4527,VALID,118,VALID,0,
2015-05-18, 09:05:04,VALID,918.798,VALID,0,VALID,72.9561,VALID,461.997,VALID,25.648,VALID,118,VALID,0,
2015-05-18, 09:06:04,VALID,918.784,VALID,0,VALID,72.674,VALID,484.022,VALID,25.8843,VALID,118,VALID,0,
2015-05-18, 09:07:04,VALID,918.77,VALID,0,VALID,70.3489,VALID,488.75,VALID,26.019,VALID,152,VALID,0,
2015-05-18, 09:08:04,VALID,918.767,VALID,0,VALID,70.913,VALID,495.411,VALID,26.0386,VALID,182,VALID,0,
2015-05-18, 09:09:04,VALID,918.764,VALID,0,VALID,70.3946,VALID,494.874,VALID,26.0952,VALID,182,VALID,0,
2015-05-18, 09:10:04,VALID,918.762,VALID,0,VALID,69.5027,VALID,499.494,VALID,26.0972,VALID,138,VALID,0,
2015-05-18, 09:11:04,VALID,918.753,VALID,0,VALID,71.0197,VALID,504.759,VALID,26.0757,VALID,156,VALID,0,
2015-05-18, 09:12:04,VALID,918.762,VALID,0,VALID,71.5991,VALID,508.304,VALID,25.9389,VALID,157,VALID,0.00585938,
2015-05-18, 09:13:04,VALID,918.76,VALID,0,VALID,70.4785,VALID,513.354,VALID,25.8218,VALID,187,VALID,0,
2015-05-18, 09:14:04,VALID,918.761,VALID,0,VALID,71.8964,VALID,517.222,VALID,25.8042,VALID,143,VALID,0.317187,
2015-05-18, 09:15:04,VALID,918.78,VALID,0,VALID,71.2103,VALID,521.197,VALID,25.687,VALID,101,VALID,0,
2015-05-18, 09:16:04,VALID,918.774,VALID,0,VALID,73.7261,VALID,523.131,VALID,25.5679,VALID,74,VALID,0.120703,
2015-05-18, 09:17:04,VALID,918.742,VALID,0,VALID,73.5278,VALID,524.635,VALID,25.5503,VALID,69,VALID,0.89375,
2015-05-18, 09:18:04,VALID,918.79,VALID,0,VALID,73.4897,VALID,525.28,VALID,25.4312,VALID,37,VALID,1.63828,
2015-05-18, 09:19:04,VALID,918.838,VALID,0,VALID,76.4705,VALID,527.106,VALID,25.4917,VALID,102,VALID,1.42539,
2015-05-18, 09:20:04,VALID,918.828,VALID,0,VALID,74.7628,VALID,527.536,VALID,25.3941,VALID,132,VALID,1.08711,
2015-05-18, 09:21:04,VALID,918.84,VALID,0,VALID,75.0144,VALID,529.148,VALID,25.3531,VALID,99,VALID,1.13594,
2015-05-18, 09:22:04,VALID,918.831,VALID,0,VALID,73.2077,VALID,530.652,VALID,25.4703,VALID,81,VALID,0,
2015-05-18, 09:23:04,VALID,918.848,VALID,0,VALID,72.5444,VALID,532.586,VALID,25.3746,VALID,111,VALID,0.886328,
2015-05-18, 09:24:04,VALID,918.841,VALID,0,VALID,73.9548,VALID,536.991,VALID,25.1793,VALID,118,VALID,0,
2015-05-18, 09:25:04,VALID,918.826,VALID,0,VALID,76.379,VALID,538.495,VALID,25.2379,VALID,71,VALID,0.698047,
2015-05-18, 09:26:04,VALID,918.81,VALID,0,VALID,75.205,VALID,540.644,VALID,25.236,VALID,71,VALID,0,
2015-05-18, 09:27:04,VALID,918.811,VALID,0,VALID,75.2279,VALID,543.76,VALID,25.2945,VALID,90,VALID,0,
2015-05-18, 09:28:04,VALID,918.82,VALID,0,VALID,75.7081,VALID,547.09,VALID,25.4312,VALID,159,VALID,0.679688,
2015-05-18, 09:29:04,VALID,918.781,VALID,0,VALID,73.5736,VALID,549.561,VALID,25.5093,VALID,164,VALID,0.188672,
2015-05-18, 09:30:04,VALID,918.796,VALID,0,VALID,75.2889,VALID,553.537,VALID,25.607,VALID,136,VALID,0.251953,
2015-05-18, 09:31:04,VALID,918.786,VALID,0,VALID,72.7198,VALID,557.405,VALID,25.4507,VALID,141,VALID,0.850781,
2015-05-18, 09:32:04,VALID,918.807,VALID,0,VALID,75.2736,VALID,560.628,VALID,25.4898,VALID,147,VALID,0.265625,
2015-05-18, 09:33:04,VALID,918.806,VALID,0,VALID,75.9902,VALID,560.413,VALID,25.5679,VALID,171,VALID,0.318359,
2015-05-18, 09:34:04,VALID,918.811,VALID,0,VALID,75.4185,VALID,564.926,VALID,25.6245,VALID,164,VALID,0.0195313,
2015-05-18, 09:35:04,VALID,918.8,VALID,0,VALID,77.2404,VALID,570.727,VALID,25.7026,VALID,80,VALID,1.00977,
2015-05-18, 09:36:04,VALID,918.814,VALID,0,VALID,74.9458,VALID,573.843,VALID,25.9585,VALID,73,VALID,0.0195313,
2015-05-18, 09:37:04,VALID,918.779,VALID,0,VALID,72.3157,VALID,581.149,VALID,26.1733,VALID,38,VALID,0,
2015-05-18, 09:38:04,VALID,918.797,VALID,0,VALID,71.9193,VALID,584.587,VALID,26.31,VALID,86,VALID,0.453906,
2015-05-18, 09:39:04,VALID,918.795,VALID,0,VALID,74.4274,VALID,586.306,VALID,26.1928,VALID,95,VALID,1.1918,
2015-05-18, 09:40:04,VALID,918.804,VALID,0,VALID,71.7287,VALID,585.232,VALID,26.2514,VALID,69,VALID,1.76328,
2015-05-18, 09:41:04,VALID,918.797,VALID,0,VALID,70.5014,VALID,585.017,VALID,26.2514,VALID,143,VALID,1.85898,
2015-05-18, 09:42:04,VALID,918.804,VALID,0,VALID,72.7045,VALID,587.381,VALID,26.1167,VALID,75,VALID,1.25742,
2015-05-18, 09:43:04,VALID,918.813,VALID,0,VALID,73.1086,VALID,594.687,VALID,26.0581,VALID,135,VALID,0,
2015-05-18, 09:44:04,VALID,918.832,VALID,0,VALID,71.5839,VALID,605.216,VALID,26.0581,VALID,98,VALID,0.386328,
2015-05-18, 09:45:04,VALID,918.807,VALID,0,VALID,71.7973,VALID,619.935,VALID,25.8628,VALID,109,VALID,1.87461,
2015-05-18, 09:46:04,VALID,918.876,VALID,0,VALID,70.8444,VALID,628.961,VALID,25.7261,VALID,114,VALID,0.755469,
2015-05-18, 09:47:04,VALID,918.858,VALID,0,VALID,73.4135,VALID,637.233,VALID,25.5894,VALID,127,VALID,0,
2015-05-18, 09:48:04,VALID,918.827,VALID,0,VALID,72.4225,VALID,637.878,VALID,25.7456,VALID,130,VALID,0,
2015-05-18, 09:49:04,VALID,918.809,VALID,0,VALID,71.9727,VALID,633.903,VALID,25.9214,VALID,130,VALID,0,
2015-05-18, 09:50:04,VALID,918.825,VALID,0,VALID,71.7211,VALID,628.746,VALID,26.0581,VALID,171,VALID,0.671484,
2015-05-18, 09:51:04,VALID,918.824,VALID,0,VALID,70.9206,VALID,636.374,VALID,26.1753,VALID,144,VALID,0.00585938,
2015-05-18, 09:52:04,VALID,918.804,VALID,0,VALID,70.9664,VALID,658.185,VALID,26.1948,VALID,154,VALID,0,
2015-05-18, 09:53:04,VALID,918.826,VALID,0,VALID,71.2866,VALID,683.003,VALID,26.3511,VALID,179,VALID,0,
2015-05-18, 09:54:04,VALID,918.818,VALID,0,VALID,69.1291,VALID,699.872,VALID,26.5269,VALID,165,VALID,0.520703,
2015-05-18, 09:55:04,VALID,918.829,VALID,0,VALID,70.1431,VALID,710.293,VALID,26.4488,VALID,157,VALID,0.317187,
2015-05-18, 09:56:04,VALID,918.839,VALID,0,VALID,71.3933,VALID,752.303,VALID,26.7027,VALID,175,VALID,0,
2015-05-18, 09:57:04,VALID,918.845,VALID,0,VALID,69.2206,VALID,766.485,VALID,27.1325,VALID,179,VALID,0,
2015-05-18, 09:58:04,VALID,918.828,VALID,0,VALID,69.0453,VALID,769.923,VALID,26.9526,VALID,149,VALID,0.747656,
2015-05-18, 09:59:04,VALID,918.879,VALID,0,VALID,72.0946,VALID,762.51,VALID,26.9156,VALID,52,VALID,1.73359,
2015-05-18, 10:00:04,VALID,918.906,VALID,0,VALID,71.6601,VALID,756.278,VALID,26.8765,VALID,44,VALID,0.155859,
2015-05-18, 10:01:04,VALID,918.855,VALID,0,VALID,68.9309,VALID,754.452,VALID,26.8765,VALID,26,VALID,1.10742,
2015-05-18, 10:02:04,VALID,918.844,VALID,0,VALID,69.8381,VALID,768.312,VALID,26.7788,VALID,57,VALID,2.3082,
2015-05-18, 10:03:04,VALID,918.924,VALID,0,VALID,70.8215,VALID,771.105,VALID,26.5835,VALID,56,VALID,1.98242,
2015-05-18, 10:04:04,VALID,918.899,VALID,0,VALID,71.7363,VALID,759.609,VALID,26.4663,VALID,50,VALID,0.789063,
2015-05-18, 10:05:04,VALID,918.877,VALID,0,VALID,70.7301,VALID,757.03,VALID,26.5249,VALID,12,VALID,0.946484,
2015-05-18, 10:06:04,VALID,918.911,VALID,0,VALID,70.4099,VALID,764.229,VALID,26.7593,VALID,13,VALID,0.128516,
2015-05-18, 10:07:04,VALID,918.914,VALID,0,VALID,68.2067,VALID,773.576,VALID,27.0914,VALID,94,VALID,0.00585938,
2015-05-18, 10:08:04,VALID,918.943,VALID,0,VALID,64.5856,VALID,746.501,VALID,27.2281,VALID,35,VALID,0.512891,
2015-05-18, 10:09:04,VALID,918.956,VALID,0,VALID,65.1268,VALID,775.51,VALID,27.2086,VALID,35,VALID,0.00585938,
2015-05-18, 10:10:04,VALID,918.985,VALID,0,VALID,65.7672,VALID,591.141,VALID,27.2868,VALID,16,VALID,0.392578,
2015-05-18, 10:11:04,VALID,918.944,VALID,0,VALID,65.0277,VALID,608.009,VALID,27.3063,VALID,359,VALID,0.873828,
2015-05-18, 10:12:04,VALID,918.976,VALID,0,VALID,67.2614,VALID,678.061,VALID,26.9937,VALID,347,VALID,0.356641,
2015-05-18, 10:13:04,VALID,918.977,VALID,0,VALID,68.3287,VALID,763.692,VALID,26.9937,VALID,1,VALID,0,
2015-05-18, 10:14:04,VALID,918.973,VALID,0,VALID,65.9121,VALID,760.361,VALID,27.15,VALID,35,VALID,0,
2015-05-18, 10:15:04,VALID,918.97,VALID,0,VALID,65.6224,VALID,758.964,VALID,27.3844,VALID,35,VALID,0,
2015-05-18, 10:16:04,VALID,918.942,VALID,0,VALID,66.1865,VALID,758.212,VALID,27.6775,VALID,34,VALID,0,
2015-05-18, 10:17:04,VALID,918.94,VALID,0,VALID,64.212,VALID,760.361,VALID,28.0293,VALID,23,VALID,0,
2015-05-18, 10:18:04,VALID,918.958,VALID,0,VALID,62.7788,VALID,769.708,VALID,28.2833,VALID,24,VALID,0,
2015-05-18, 10:19:04,VALID,918.952,VALID,0,VALID,62.329,VALID,777.337,VALID,28.4006,VALID,45,VALID,1.33008,
2015-05-18, 10:20:04,VALID,918.946,VALID,0,VALID,62.6111,VALID,792.701,VALID,28.2051,VALID,23,VALID,1.13555,
2015-05-18, 10:21:04,VALID,918.978,VALID,0,VALID,63.8614,VALID,807.098,VALID,28.0467,VALID,31,VALID,2.00547,
2015-05-18, 10:22:04,VALID,918.983,VALID,0,VALID,63.9757,VALID,817.305,VALID,27.8534,VALID,62,VALID,0,
2015-05-18, 10:23:04,VALID,919.003,VALID,0,VALID,62.4129,VALID,831.38,VALID,27.9316,VALID,65,VALID,0,
2015-05-18, 10:24:04,VALID,918.97,VALID,0,VALID,61.6963,VALID,841.372,VALID,27.9706,VALID,286,VALID,0.00390625,
2015-05-18, 10:25:04,VALID,918.982,VALID,0,VALID,62.1461,VALID,840.942,VALID,27.7731,VALID,301,VALID,0,
2015-05-18, 10:26:04,VALID,918.96,VALID,0,VALID,64.0291,VALID,323.29,VALID,27.6754,VALID,304,VALID,0,
2015-05-18, 10:27:04,VALID,918.953,VALID,0,VALID,62.1842,VALID,931.3,VALID,27.7557,VALID,20,VALID,1.11016,
2015-05-18, 10:28:04,VALID,918.907,VALID,0,VALID,63.8232,VALID,321.249,VALID,27.7536,VALID,331,VALID,0,
2015-05-18, 10:29:04,VALID,918.923,VALID,0,VALID,62.0546,VALID,309.86,VALID,27.7145,VALID,300,VALID,0,
2015-05-18, 10:30:04,VALID,918.897,VALID,0,VALID,62.0699,VALID,275.694,VALID,27.5777,VALID,321,VALID,0,
2015-05-18, 10:31:04,VALID,918.899,VALID,0,VALID,63.5107,VALID,249.908,VALID,27.5212,VALID,321,VALID,0,
2015-05-18, 10:32:04,VALID,918.876,VALID,0,VALID,63.0457,VALID,218.106,VALID,27.5582,VALID,321,VALID,0,
2015-05-18, 10:33:04,VALID,918.896,VALID,0,VALID,63.2439,VALID,252.809,VALID,27.6754,VALID,1,VALID,0,
2015-05-18, 10:34:04,VALID,918.894,VALID,0,VALID,65.2946,VALID,787.544,VALID,27.5777,VALID,13,VALID,0,
2015-05-18, 10:35:04,VALID,918.873,VALID,0,VALID,66.6134,VALID,584.158,VALID,27.658,VALID,29,VALID,0,
2015-05-18, 10:36:04,VALID,918.813,VALID,0,VALID,62.6187,VALID,872.637,VALID,27.5582,VALID,60,VALID,0.226172,
2015-05-18, 10:37:04,VALID,918.798,VALID,0,VALID,68.1381,VALID,296.215,VALID,27.4214,VALID,82,VALID,1.26602,
2015-05-18, 10:38:04,VALID,918.8,VALID,0,VALID,66.9183,VALID,237.015,VALID,27.3628,VALID,75,VALID,1.20742,
2015-05-18, 10:39:04,VALID,918.797,VALID,0,VALID,68.2829,VALID,305.025,VALID,27.2435,VALID,53,VALID,0.0121094,
2015-05-18, 10:40:04,VALID,918.768,VALID,0,VALID,66.8421,VALID,900.249,VALID,27.3238,VALID,60,VALID,0,
2015-05-18, 10:41:04,VALID,918.729,VALID,0,VALID,65.691,VALID,412.896,VALID,27.2477,VALID,204,VALID,0.843359,